Location: Bailleul
(50.3375°N, 2.8513°E)
Time: 20:05:41
(UTC+00:00)

Terra - Pass Details

Date: 01 August 2021
Orbit: 701 x 703 km, 98.2° (Epoch: 17 September)

Event Time Altitude Azimuth Distance (km) Brightness Sun altitude
Exits shadow 22:57:35 12° 235° (SW) 2,025 4.0 -20.7°
Maximum altitude 23:00:09 18° 271° (W) 1,718 4.0 -20.8°
Drops below altitude 10° 23:03:21 10° 313° (NW) 2,182 5.1 -21.0°
Sets 23:06:20 0° 333° (NNW) 3,106 6.5 -21.1°
